Regional Weather Roundup
Issued by NWS Spokane, WA

Home | Current Version | Previous Version | Text Only | Print | Product List | Glossary On
Versions: 1 2 3 4 5 6 7 8 9 10 11 12 13 14 15 16 17 18 19 20 21 22 23 24 25 26 27 28 29 30 31 32 33 34 35 36 37 38 39 40 41 42 43 44 45 46 47 48 49 50
570
NZUS01 KOTX 241125
RWROTX

Eastern Washington/Northern Idaho Roundup
National Weather Service, Spokane WA
300 AM PST FRI NOV 24 2017

Note: "fair" indicated few or no clouds below 12,000 feet with no
significant weather and/or obstructions to visibility.

...Northeast Washington and Northern Idaho Panhandle...

CITY           SKY/WX    TMP DP  RH WIND       PRES   REMARKS
Spokane Intl   PTCLDY    37  32  82 S12       29.94R
Spokane Downto CLEAR     35  33  92 N5        29.96R
Coeur d Alene  MOCLDY    38  33  82 S5        29.96R
Deer Park      PTCLDY    34  31  88 S7        29.94R WCI  28
Sandpoint      MOCLDY    37  32  81 SW8       29.92R
Bonners Ferry  FAIR      39  34  81 SW7       29.89R

...Southeast Washington and southern Idaho Panhandle...

CITY           SKY/WX    TMP DP  RH WIND       PRES   REMARKS
Walla Walla    CLEAR     45  37  73 S12       30.05R
Pullman/Moscow CLEAR     40  32  73 W14G22    29.99R
Lewiston       CLEAR     43  34  70 SW8       29.98S
Lowell           N/A     44  44 100 CALM      30.01R
Grangeville    FAIR      41  36  81 SW21      29.96F

...Columbia Basin...

CITY           SKY/WX    TMP DP  RH WIND       PRES   REMARKS
Ephrata        CLOUDY    42  32  67 SW12      29.93R
Moses Lake     CLOUDY    45  36  70 SW14      29.95R
Pasco          CLEAR     46  38  73 SW14      30.02R
Richland       SUNNY     46  38  73 SW5       30.03R
Hermiston      CLEAR     47  38  71 SW12      30.05R
Pendleton      CLEAR     40  34  79 S8        30.04R

...East Slopes Cascades...

CITY           SKY/WX    TMP DP  RH WIND       PRES   REMARKS
The Dalles     MOCLDY    44  40  85 S3        30.07R
Yakima         PTCLDY    34  30  85 SW3       30.00R
Ellensburg     CLOUDY    43  35  73 NW15      29.97R
Stampede Pass  LGT SNOW  32  31  96 SW13G30   29.94R FOG     WCI  22
Wenatchee      CLOUDY    39  33  79 CALM      29.94R
Omak           CLOUDY    39  34  82 SW5       29.90R HAZE
Chelan           N/A     45  30  57 S7          N/A
Sunnyside      SUNNY     35  32  88 NE5       30.01S

...Southern British Columbia...

CITY           SKY/WX    TMP DP  RH WIND       PRES   REMARKS
Penticton      MOCLDY    43  36  75 S13G21    29.86R
Cranbrook      MOCLDY    34  27  75 VRB3      29.80R
Osoyoos          N/A     39  32  75 SE5         N/A
Creston          N/A     37  32  81 NE5         N/A

...Western Montana...

CITY           SKY/WX    TMP DP  RH WIND       PRES   REMARKS
Kalispell      SUNNY     38  29  70 SW9       29.87R
Libby            N/A     34  30  86 CALM      29.88R
Missoula       PTCLDY    38  29  70 W7        29.93R

...Neighboring Cities...

CITY           SKY/WX    TMP DP  RH WIND       PRES   REMARKS
Seattle        CLOUDY    47  43  86 S10       30.04R
Portland       MOCLDY    48  45  89 SW9       30.12R
Boise          RAIN      51  48  89 SW3       29.95R FOG
Great Falls    CLEAR     42  18  37 W21G33    29.71R
Calgary        PTCLDY    39  19  45 SW7       29.59R



USA.gov is the U.S. government's official web portal to all federal, state and local government web resources and services.